Regional Weather Roundup
Issued by NWS

Home | Current Version | Previous Version | Graphics & Text | Print | Product List | Glossary On
Versions: 1 2 3 4 5 6 7 8 9 10 11 12 13 14 15 16 17 18 19 20 21 22 23 24 25 26 27 28 29 30 31 32 33 34 35 36 37 38 39 40 41 42 43 44 45 46 47 48 49 50
000
ASUS43 KMKX 290811
RWRWI

WISCONSIN REGIONAL WEATHER ROUNDUP
NATIONAL WEATHER SERVICE MILWAUKEE/SULLIVAN WI
300 AM CDT WED JUL 29 2015

NOTE: "FAIR" INDICATES FEW OR NO CLOUDS BELOW 12,000 FEET WITH NO
SIGNIFICANT WEATHER AND/OR OBSTRUCTIONS TO VISIBILITY.

WIZ001-002-006>008-014>016-023>028-290900-
NORTHWEST WISCONSIN

CITY           SKY/WX    TMP DP  RH WIND       PRES   REMARKS
SUPERIOR ARPT  CLEAR     66  54  64 SW16G22   29.74F
ASHLAND        PTCLDY    66  60  81 SW12      29.79F
HAYWARD        PTCLDY    68  53  58 SW7       29.86F
SIREN          CLEAR     66  54  63 SW8       29.86F
CUMBERLAND     PTCLDY    63  54  72 SW7       29.89S
RICE LAKE      PTCLDY    65  57  73 SW6       29.91S
CHETEK         PTCLDY    67  58  72 SW7       29.90S
LADYSMITH      MOCLDY    68  58  71 SW7       29.90S
EAU CLAIRE     MOCLDY    68  59  73 SW7       29.90S
MENOMONIE      PTCLDY    69  59  71 W9        29.91S
NEW RICHMOND   CLEAR     65  58  77 SW9       29.91F
OSCEOLA        CLEAR     66  56  70 SW8       29.93S
$$

WIZ003>005-009-010-017-018-290900-
NORTH CENTRAL WISCONSIN

CITY           SKY/WX    TMP DP  RH WIND       PRES   REMARKS
MANITOWISH WTR CLOUDY    71  55  58 W9        29.86S
ARBOR VITAE    CLOUDY    72  57  60 W9G17     29.87S
WOODRUFF       CLOUDY    72  57  60 W9G17     29.87S
RHINELANDER    CLOUDY    71  61  70 W16       29.88R
EAGLE RIVER    CLOUDY    71  64  81 W12       29.85R
LAND O LAKES   CLOUDY    71  65  83 W7G17     29.85S
PHILLIPS       CLEAR     69  57  66 SW5       29.87F
TOMAHAWK       CLOUDY    70  58  65 W5        29.89S
MEDFORD        CLOUDY    70  58  66 W5        29.91R
MERRILL        NOT AVBL
$$

WIZ029-030-035-036-043>047-290900-
CENTRAL WISCONSIN

CITY           SKY/WX    TMP DP  RH WIND       PRES   REMARKS
WAUSAU         CLOUDY    75  61  61 W15G23    29.87R
MOSINEE        CLOUDY    73  70  88 W14       29.89S
MARSHFIELD     CLOUDY    73  57  57 NW8       29.91R
STEVENS POINT  CLOUDY    74  69  86 SW9       29.89R
WAUPACA        CLOUDY    74  73  95 SW6       29.88S
WAUTOMA        CLOUDY    74  72  93 SW6       29.90R
WISC RAPIDS    CLOUDY    75  69  81 W9        29.92R
CAMP DOUGLAS   NOT AVBL
$$

WIZ011>013-019>022-031-037>040-048>050-290900-
NORTHEAST WISCONSIN

CITY           SKY/WX    TMP DP  RH WIND       PRES   REMARKS
ANTIGO         CLOUDY    72  70  95 SW8       29.88S
SHAWANO        CLOUDY    75  70  85 CALM      29.86S
OCONTO         MOCLDY    72  72 100 SW3       29.84S
STURGEON BAY   MOCLDY    72  66  83 S7        29.88F
GREEN BAY      CLOUDY    72  69  90 S5        29.86S FOG
MANITOWOC      MOCLDY    71  68  90 MISG      29.87F
APPLETON       CLOUDY    73  72  94 SW9       29.89R
CLINTONVILLE   CLOUDY    73  68  83 SW6       29.86S
OSHKOSH        CLOUDY    76  71  85 VRB5      29.88R
$$

WIZ032>034-041-042-053>061-290900-
SOUTHWEST WISCONSIN

CITY           SKY/WX    TMP DP  RH WIND       PRES   REMARKS
LA CROSSE      CLOUDY    75  62  64 W6        29.93R
SPARTA         CLOUDY    74  68  82 W5        29.94R
VIROQUA        CLOUDY    73  69  89 W6        29.96R
BOSCOBEL       CLOUDY    74  72  93 SW5       29.93R
PRAIRIE DU CHI CLOUDY    74  70  85 W3        29.94R
PLATTEVILLE    CLOUDY    73  72  97 W6        29.95S
$$

WIZ056-057-062-063-064-067-068-290900-
SOUTH CENTRAL WISCONSIN

CITY           SKY/WX    TMP DP  RH WIND       PRES   REMARKS
REEDSBURG      CLOUDY    73  71  92 W8        29.92R
BARABOO/DELLS  CLOUDY    74  68  80 W6        29.92S
LONE ROCK      CLOUDY    75  70  84 W7        29.93R
MINERAL POINT  HVY RAIN  73  72  94 W6        29.95S
MADISON        MOCLDY    78  73  84 CALM      29.91R HX  81
MIDDLETON      CLOUDY    76  74  94 W8        29.93R
WATERTOWN      CLOUDY    74  74 100 CALM      29.91R
MONROE         CLOUDY    73  72  94 SW7       29.94S
JANESVILLE     MOCLDY    73  72  94 W3        29.92R
$$

WIZ051-052-058>065-066-070>072-290900-
SOUTHEAST WISCONSIN

CITY           SKY/WX    TMP DP  RH WIND       PRES   REMARKS
MILWAUKEE      MOCLDY    76  70  82 S3        29.90S
WAUKESHA       MOCLDY    72  70  94 SW6       29.93R
MILWAUKEE/TIMM MOCLDY    72  68  88 SW5       29.91R
RACINE         CLOUDY    77  71  82 S3        29.92S
BURLINGTON     MOCLDY    69  68  97 CALM      29.92R FOG
KENOSHA        CLOUDY    77  72  84 SW6       29.92S
FOND DU LAC    CLOUDY    75  72  90 SW7       29.89S
SHEBOYGAN      PTCLDY    69  67  93 MISG      29.88F FOG
WEST BEND      MOCLDY    72  68  88 CALM      29.91R FOG
JUNEAU         CLOUDY    73  72  96 SW6       29.92R FOG
$$

LSZ147-162-290900-
LAKE SUPERIOR

STATION/POSITION TIME  TEMP    WIND        PRES    WAVE
                       AIR SEA DIR/SP/G            HT/PER
                 (UTC) (F)     (DEG/KT/KT) (MB)    (FT/S)
W MID LAKE BUOY  0750   67 62  210/ 12/ 14 1006.4F   2/ 3
DEVILS ISLAND    0800   72     230/ 21/ 26 1006.3F
PORT WING        0740   71     210/ 12/ 16 1008.1F
SAXON HARBOR     0700   75                 1008.8F
$$

LMZ867-665-643>646-290900-
LAKE MICHIGAN

STATION/POSITION TIME  TEMP    WIND        PRES    WAVE
                       AIR SEA DIR/SP/G            HT/PER
                 (UTC) (F)     (DEG/KT/KT) (MB)    (FT/S)
CHAMBERS ISLAND  0700   75     170/  5/  8 1010.8F
S GREEN BAY BUOY 0800   75 75  180/ 10/ 14 1012.1
N MID LAKE BUOY  0750   73 71  180/ 10/ 12 1010.3F   1/ 3
NORTHPORT PIER   0700   73     150/  6/  9 1010.8F
SISTER BAY       0744   71     150/  8/ 12   N/A
KEWAUNEE LAKESHO 0700   63     160/  6/  7 1011.0F
SHEBOYGAN LAKESH 0800   72     190/  7/  7 1011.8F
PORT WASHINGTON  0740   71     180/  5/  5 1012.2F
ATWATER BUOY     0800   69     180/  4/  4 1013.6F
MILWAUKEE LAKESH 0700   72     170/  3/  3   N/A
KENOSHA   LAKESH 0800   78     190/  4/  6 1012.5R
$$

TC  - TEMPERATURE IN CELSIUS
VSB - VISIBILITY IN STATUTE MILES
WCI - WIND CHILL INDEX
HX  - HEAT INDEX




USA.gov is the U.S. government's official web portal to all federal, state and local government web resources and services.